FW8892 Weather Reports


Display with metric or nautical units.
time (UTC)temp
F
wind
direction
speed
MPH
gust
MPH
rain 1hr
in
rain 24hr
in
rain mn
in
humidity
%
barometer
mb
20260505041555 66 192 3.0 9.0 0.00 0.00 0.00 60 1010.8
20260505041030 66 194 3.0 9.0 0.00 0.00 0.00 59 1010.8
20260505040529 66 202 2.0 8.0 0.00 0.00 0.00 60 1010.7
20260505040047 66 249 4.0 8.0 0.00 0.00 0.00 59 1010.7
20260505035530 66 242 3.0 11.0 0.00 0.00 0.00 59 1010.7
20260505035029 66 231 4.0 11.0 0.00 0.00 0.00 59 1010.7
20260505034543 67 175 3.0 7.0 0.00 0.00 0.00 59 1010.6
20260505034026 67 171 3.0 11.0 0.00 0.00 0.00 58 1010.6
20260505033529 67 152 3.0 12.0 0.00 0.00 0.00 58 1010.7
20260505033042 67 220 5.0 12.0 0.00 0.00 0.00 58 1010.6
20260505032529 67 201 4.0 12.0 0.00 0.00 0.00 58 1010.5
20260505032028 67 192 2.0 10.0 0.00 0.00 0.00 58 1010.5
20260505031556 67 200 3.0 11.0 0.00 0.00 0.00 58 1010.4
20260505031029 67 188 2.0 11.0 0.00 0.00 0.00 57 1010.3
20260505030529 67 110 3.0 11.0 0.00 0.00 0.00 58 1010.1
20260505030047 67 180 5.0 11.0 0.00 0.00 0.00 58 1010.1
20260505025529 68 189 4.0 10.0 0.00 0.00 0.00 58 1010.1
20260505025030 68 183 4.0 11.0 0.00 0.00 0.00 58 1010.2
20260505024546 68 190 5.0 11.0 0.00 0.00 0.00 57 1010.1
20260505024029 68 189 4.0 10.0 0.00 0.00 0.00 57 1010.0
20260505023529 68 203 3.0 10.0 0.00 0.00 0.00 57 1010.0
20260505023056 68 200 4.0 10.0 0.00 0.00 0.00 57 1010.0
20260505022529 68 180 3.0 9.0 0.00 0.00 0.00 57 1010.0
20260505022028 68 184 3.0 10.0 0.00 0.00 0.00 57 1010.1
20260505021543 68 178 3.0 11.0 0.00 0.00 0.00 56 1010.0
20260505021029 68 225 4.0 11.0 0.00 0.00 0.00 56 1010.0
20260505020529 68 215 2.0 7.0 0.00 0.00 0.00 56 1010.0
20260505020041 69 192 3.0 7.0 0.00 0.00 0.00 55 1009.9
20260505015529 69 175 2.0 7.0 0.00 0.00 0.00 54 1009.9
20260505015030 69 173 3.0 8.0 0.00 0.00 0.00 54 1009.9
20260505014551 70 189 2.0 8.0 0.00 0.00 0.00 53 1009.9
20260505014031 70 219 2.0 8.0 0.00 0.00 0.00 53 1009.8
20260505013529 70 194 3.0 11.0 0.00 0.00 0.00 53 1009.9
20260505013104 70 192 4.0 11.0 0.00 0.00 0.00 52 1009.9
20260505012529 70 196 4.0 9.0 0.00 0.00 0.00 52 1009.9
20260505012029 71 168 3.0 10.0 0.00 0.00 0.00 52 1009.9
20260505011548 71 202 4.0 11.0 0.00 0.00 0.00 52 1009.9
20260505011029 71 152 4.0 12.0 0.00 0.00 0.00 51 1009.8
20260505010529 71 198 5.0 12.0 0.00 0.00 0.00 51 1009.8
20260505010044 71 205 3.0 11.0 0.00 0.00 0.00 51 1009.8
20260505005529 72 178 3.0 10.0 0.00 0.00 0.00 51 1009.6
20260505005029 72 177 5.0 10.0 0.00 0.00 0.00 51 1009.7
20260505004548 72 188 3.0 10.0 0.00 0.00 0.00 50 1009.7
20260505004029 72 190 3.0 10.0 0.00 0.00 0.00 50 1009.7
20260505003529 73 203 4.0 10.0 0.00 0.00 0.00 50 1009.7
20260505003047 73 180 4.0 10.0 0.00 0.00 0.00 50 1009.8
20260505002530 73 192 5.0 10.0 0.00 0.00 0.00 50 1009.8
20260505002030 73 192 2.0 8.0 0.00 0.00 0.00 50 1009.9
20260505001551 74 195 2.0 8.0 0.00 0.00 0.00 49 1009.8
20260505001029 74 177 4.0 10.0 0.00 0.00 0.00 49 1009.8
20260505000529 74 201 5.0 12.0 0.00 0.00 0.00 48 1009.9
20260505000105 75 235 4.0 13.0 0.00 0.00 0.00 48 1009.9
20260504235529 75 188 3.0 13.0 0.00 0.00 0.00 48 1009.8
20260504235029 75 178 2.0 13.0 0.00 0.00 0.00 48 1009.9
20260504234543 75 205 4.0 15.0 0.00 0.00 0.00 48 1010.0
20260504234030 76 200 5.0 15.0 0.00 0.00 0.00 47 1010.0
20260504233530 76 234 7.0 18.0 0.00 0.00 0.00 46 1009.9
20260504233041 76 207 5.0 18.0 0.00 0.00 0.00 46 1010.0
20260504232530 76 227 4.0 14.0 0.00 0.00 0.00 45 1010.0
20260504232029 77 251 4.0 14.0 0.00 0.00 0.00 45 1010.2
20260504231546 77 249 4.0 11.0 0.00 0.00 0.00 47 1010.2
20260504231029 77 216 3.0 11.0 0.00 0.00 0.00 46 1010.2
20260504230530 77 215 5.0 11.0 0.00 0.00 0.00 45 1010.1
20260504225530 78 224 2.0 11.0 0.00 0.00 0.00 45 1010.2
20260504225030 78 221 3.0 11.0 0.00 0.00 0.00 44 1010.2
20260504224545 78 355 4.0 11.0 0.00 0.00 0.00 45 1010.3
20260504224029 78 262 3.0 12.0 0.00 0.00 0.00 46 1010.2
20260504223529 78 228 5.0 12.0 0.00 0.00 0.00 44 1010.2
20260504223042 78 277 3.0 15.0 0.00 0.00 0.00 44 1010.3
20260504222529 78 284 5.0 15.0 0.00 0.00 0.00 43 1010.3
20260504222029 78 314 4.0 11.0 0.00 0.00 0.00 43 1010.4
20260504221550 79 220 5.0 15.0 0.00 0.00 0.00 43 1010.3
20260504221031 79 219 3.0 15.0 0.00 0.00 0.00 45 1010.3
20260504220532 79 232 6.0 15.0 0.00 0.00 0.00 45 1010.3
20260504220048 79 252 6.0 14.0 0.00 0.00 0.00 45 1010.3
20260504215530 79 290 7.0 14.0 0.00 0.00 0.00 45 1010.2
20260504215029 79 184 6.0 15.0 0.00 0.00 0.00 46 1010.2
20260504214547 79 213 7.0 18.0 0.00 0.00 0.00 43 1010.2
20260504214029 79 175 8.0 18.0 0.00 0.00 0.00 44 1010.2
20260504213529 79 226 3.0 25.0 0.00 0.00 0.00 44 1010.1
20260504213045 80 213 8.0 25.0 0.00 0.00 0.00 42 1010.1
20260504212529 80 276 4.0 18.0 0.00 0.00 0.00 43 1010.0
20260504212031 81 135 7.0 18.0 0.00 0.00 0.00 42 1010.0
20260504211550 81 316 5.0 14.0 0.00 0.00 0.00 41 1010.1
20260504211030 81 219 6.0 15.0 0.00 0.00 0.00 44 1010.0
20260504210529 80 218 6.0 21.0 0.00 0.00 0.00 42 1010.1
20260504210053 80 209 6.0 21.0 0.00 0.00 0.00 41 1010.1
20260504205530 80 199 6.0 16.0 0.00 0.00 0.00 41 1010.4
20260504205029 80 275 5.0 16.0 0.00 0.00 0.00 43 1010.2
20260504204548 80 211 7.0 16.0 0.00 0.00 0.00 42 1010.3
20260504204029 80 161 8.0 20.0 0.00 0.00 0.00 43 1010.2
20260504203529 80 178 5.0 20.0 0.00 0.00 0.00 44 1010.2
20260504203054 80 261 8.0 22.0 0.00 0.00 0.00 42 1010.3
20260504202529 80 246 10.0 22.0 0.00 0.00 0.00 42 1010.6
20260504202030 80 221 8.0 22.0 0.00 0.00 0.00 43 1010.5
20260504201541 80 180 6.0 20.0 0.00 0.00 0.00 46 1010.5
20260504201029 81 230 7.0 20.0 0.00 0.00 0.00 44 1010.7
20260504200529 81 217 7.0 16.0 0.00 0.00 0.00 44 1010.5
20260504200050 81 177 9.0 16.0 0.00 0.00 0.00 45 1010.8
20260504195528 82 208 6.0 15.0 0.00 0.00 0.00 46 1010.9
20260504195029 81 202 3.0 20.0 0.00 0.00 0.00 46 1010.9
20260504194539 81 183 5.0 20.0 0.00 0.00 0.00 45 1011.0
20260504194030 81 240 8.0 17.0 0.00 0.00 0.00 45 1011.1
20260504193528 81 236 4.0 19.0 0.00 0.00 0.00 48 1011.1
20260504193047 81 179 7.0 19.0 0.00 0.00 0.00 47 1011.1
20260504192529 81 175 5.0 15.0 0.00 0.00 0.00 49 1011.1
20260504192029 81 202 4.0 15.0 0.00 0.00 0.00 50 1011.3
20260504191546 81 257 3.0 15.0 0.00 0.00 0.00 48 1011.3
20260504191030 81 203 6.0 13.0 0.00 0.00 0.00 45 1011.3
20260504190527 81 217 6.0 13.0 0.00 0.00 0.00 49 1011.5
20260504190041 81 166 7.0 15.0 0.00 0.00 0.00 47 1011.6
20260504185529 80 159 5.0 19.0 0.00 0.00 0.00 48 1011.7
20260504185031 81 207 7.0 19.0 0.00 0.00 0.00 46 1011.6
20260504184540 80 221 4.0 12.0 0.00 0.00 0.00 48 1011.6
20260504184029 80 207 4.0 14.0 0.00 0.00 0.00 50 1011.8
20260504183530 80 239 4.0 14.0 0.00 0.00 0.00 52 1011.7
20260504183048 80 241 4.0 14.0 0.00 0.00 0.00 47 1011.7
20260504182529 80 266 6.0 18.0 0.00 0.00 0.00 48 1011.9
20260504182027 81 262 6.0 18.0 0.00 0.00 0.00 47 1011.8
20260504181554 80 188 4.0 18.0 0.00 0.00 0.00 50 1011.9
20260504181030 80 322 5.0 17.0 0.00 0.00 0.00 48 1011.9
20260504180528 80 209 6.0 17.0 0.00 0.00 0.00 47 1011.9
20260504180046 80 206 3.0 11.0 0.00 0.00 0.00 48 1012.0
20260504175527 80 289 4.0 17.0 0.00 0.00 0.00 50 1012.0
20260504175030 80 208 6.0 17.0 0.00 0.00 0.00 47 1012.0
20260504174541 80 211 4.0 11.0 0.00 0.00 0.00 50 1012.0
20260504174031 80 184 4.0 15.0 0.00 0.00 0.00 51 1012.0
20260504173527 79 293 4.0 16.0 0.00 0.00 0.00 49 1011.9
20260504173049 79 230 6.0 18.0 0.00 0.00 0.00 49 1012.0
20260504172533 79 283 5.0 18.0 0.00 0.00 0.00 50 1012.0
20260504172029 79 171 5.0 14.0 0.00 0.00 0.00 52 1012.2
20260504171546 79 195 4.0 9.0 0.00 0.00 0.00 51 1012.2
20260504171030 79 216 4.0 10.0 0.00 0.00 0.00 50 1012.1
20260504170527 78 238 2.0 11.0 0.00 0.00 0.00 51 1012.4
20260504151031 73 211 5.0 13.0 0.00 0.00 0.00 57 1013.5
20260504150531 73 202 2.0 10.0 0.00 0.00 0.00 59 1013.6
20260504141030 68 173 5.0 13.0 0.00 0.00 0.00 63 1013.8
20260504140530 67 214 5.0 13.0 0.00 0.00 0.00 64 1013.8
20260504130530 63 202 5.0 10.0 0.00 0.00 0.00 64 1013.9
20260504110529 55 194 3.0 9.0 0.00 0.00 0.00 71 1013.4
20260504100532 54 186 3.0 8.0 0.00 0.00 0.00 72 1013.1
20260504081556 52 142 3.0 7.0 0.00 0.00 0.00 74 1013.5
20260504081030 52 186 3.0 7.0 0.00 0.00 0.00 74 1013.5
20260504080529 52 184 2.0 8.0 0.00 0.00 0.00 74 1013.6
20260504050530 50 178 0.0 4.0 0.00 0.00 0.00 74 1015.1